Regional Weather Roundup
Issued by NWS

Home | Current Version | Previous Version | Text Only | Print | Product List | Glossary Off
Versions: 1 2 3 4 5 6 7 8 9 10 11 12 13 14 15 16 17 18 19 20 21 22 23 24 25 26 27 28 29 30 31 32 33 34 35 36 37 38 39 40 41 42 43 44 45 46 47 48 49 50

000
ASUS43 KIND 280509
RWRIN

WEATHER ROUNDUP FOR INDIANA
NATIONAL WEATHER SERVICE INDIANAPOLIS IN
1200 AM EST SUN DEC 28 2014

NOTE: "FAIR" INDICATES FEW OR NO CLOUDS BELOW 12,000 FEET WITH NO
SIGNIFICANT WEATHER AND/OR OBSTRUCTIONS TO VISIBILITY.

* - STATION DOES NOT REPORT WEATHER SUCH AS PRECIPITATION OR FOG.

+ - STATION NOT QUALITY CONTROLLED BY THE NATIONAL WEATHER SERVICE.
    USE DATA WITH CAUTION...ESPECIALLY DEWPOINT AND RELATIVE
    HUMIDITY OBSERVATIONS.

INZ001>003-010>013-019-020-280600-
NORTHWEST INDIANA

CITY           SKY/WX    TMP DP  RH WIND       PRES   REMARKS
GARY /AIRPORT/ CLOUDY    35  24  63 W12       30.11F WCI  27
KNOX *+        CLOUDY    33  26  76 W7        30.09F WCI  27
LA PORTE +     CLOUDY    36  29  78 NW5       30.08F
MICHIGAN CITY+ CLOUDY    34  25  69 NW8       30.09F WCI  27
MONTICELLO +   CLOUDY    32  29  89 NW10      30.10S WCI  24
RENSSELAER +   CLOUDY    32  32 100 W10       30.12S WCI  24
VALPARAISO     CLOUDY    33  26  75 NW6       30.09F WCI  28

$$

LMZ046-743>745-280600-
SOUTHERN LAKE MICHIGAN

STATION/POSITION TIME  TEMP WIND        PRES
                       AIR  DIR/SP/G
                 (UTC) (F)  (DEG/KT/KT) (MB)
MICHIGAN CITY    0500   35  270/ 16/ 20   N/A

$$

INZ004-005-014>016-021>024-280600-
NORTH CENTRAL INDIANA

CITY           SKY/WX    TMP DP  RH WIND       PRES   REMARKS
GOSHEN         CLOUDY    35  29  78 W13       30.05F WCI  26
LOGANSPORT +   CLOUDY    32  28  86 NW6       30.11R WCI  26
PERU/GRISSOM   CLOUDY    33  33  99 NW13      30.08S WCI  24
ROCHESTER +    CLOUDY    36  32  87 W5        30.09S
SOUTH BEND     CLOUDY    35  29  78 W9        30.08S WCI  28
WARSAW +       CLOUDY    34  30  86 NW12G18   30.06F WCI  25

$$

INZ006>009-017-018-025>027-280600-
NORTHEAST INDIANA

CITY           SKY/WX    TMP DP  RH WIND       PRES   REMARKS
ANGOLA *+      CLOUDY    34  30  86 NW9       30.04R WCI  26
AUBURN +       CLOUDY    36  32  87 W9        30.05S
FORT WAYNE     LGT SNOW  33  32  96 W8        30.06F FOG     WCI  26
HUNTINGTON +   CLOUDY    32  29  88 W6        30.07S WCI  27

$$

INZ028-029-035-036-043>045-051>053-280600-
WEST CENTRAL INDIANA

CITY           SKY/WX    TMP DP  RH WIND       PRES   REMARKS
CRAWFORDSVL +  CLOUDY    30  28  93 NW12      30.12  WCI  21
GREENCASTLE +  CLOUDY    32  30  93 NW7       30.12R WCI  26
LAFAYETTE      CLOUDY    32  28  85 NW14      30.13R WCI  22
TERRE HAUTE    CLOUDY    35  32  88 NW7       30.13F WCI  29

$$

INZ030>032-037>040-046>048-054>057-064-065-280600-
CENTRAL INDIANA

CITY           SKY/WX    TMP DP  RH WIND       PRES   REMARKS
CP ATTERBURY + LGT RAIN  37  36  93 MISG      30.10S
FRANKFORT +    CLOUDY    33  33 100 W9        30.12S WCI  25
GREENWOOD *+   CLOUDY    37  34  87 NW9       30.10
INDIANAPOLIS   LGT RAIN  33  32  96 NW8       30.10S WCI  26
-EAGLE CREEK   LGT RAIN  34  33  96 NW9       30.10S WCI  27
KOKOMO *+      CLOUDY    34  28  80 NW9       30.09F WCI  26
MARION +       CLOUDY    32  32  99 W12       30.09F FOG     WCI  23
MT COMFORT *+  CLOUDY    36 N/A N/A NW8       30.09F
SHELBYVILLE    LGT RAIN  39  36  89 NW9       30.08S
ZIONSVILLE +   DRIZZLE   33  30  88 NW8       30.11F WCI  27

$$

INZ033-034-041-042-049-050-058-059-280600-
EAST CENTRAL INDIANA

CITY           SKY/WX    TMP DP  RH WIND       PRES   REMARKS
MUNCIE         LGT RAIN  34  32  92 NW9       30.08S WCI  27

$$

INZ060-061-067>069-081>083-085>088-280600-
SOUTHWEST INDIANA

CITY           SKY/WX    TMP DP  RH WIND       PRES   REMARKS
EVANSVILLE     LGT RAIN  41  38  89 N8        30.13F
HUNTINGBURG *+ CLOUDY    41  37  87 N7        30.11F
WASHINGTON +   DRIZZLE   38  34  88 N8        30.12F

$$

INZ062-063-066-070>080-084-089>092-280600-
SOUTH CENTRAL AND SOUTHEAST INDIANA

CITY           SKY/WX    TMP DP  RH WIND       PRES   REMARKS
BLOOMINGTON    LGT RAIN  37  35  92 NW7       30.10F
NORTH VERNON + LGT RAIN  43  43 100 N9        30.09
SEYMOUR +      CLOUDY    43  43 100 CALM      30.08

$$




USA.gov is the U.S. government's official web portal to all federal, state and local government web resources and services.